GW0392 Weather Reports


Display with metric or nautical units.
time (UTC)temp
F
wind
direction
speed
MPH
gust
MPH
rain 1hr
in
rain 24hr
in
rain mn
in
humidity
%
barometer
mb
20260510023050 62 231 0.0 0.0 0.00 0.00 0.00 90 1013.8
20260510022549 63 232 0.0 0.0 0.00 0.00 0.00 90 1013.7
20260510022044 63 232 0.0 0.0 0.00 0.00 0.00 89 1013.5
20260510021541 63 232 0.0 0.0 0.00 0.00 0.00 89 1013.7
20260510021038 64 227 0.0 0.0 0.00 0.00 0.00 88 1013.7
20260510020532 64 229 0.0 0.0 0.00 0.00 0.00 87 1013.6
20260510020028 64 229 0.0 0.0 0.00 0.00 0.00 87 1013.4
20260510015524 64 231 0.0 0.0 0.00 0.00 0.00 86 1013.4
20260510015020 64 231 0.0 0.0 0.00 0.00 0.00 85 1013.4
20260510014517 64 231 0.0 0.0 0.00 0.00 0.00 85 1013.1
20260510014014 64 231 0.0 0.0 0.00 0.00 0.00 85 1013.1
20260510013509 64 228 0.0 0.0 0.00 0.00 0.00 85 1012.9
20260510013005 64 231 0.0 0.0 0.00 0.00 0.00 85 1012.8
20260510012459 64 232 0.0 0.0 0.00 0.00 0.00 85 1013.0
20260510011954 65 228 0.0 0.0 0.00 0.00 0.00 85 1012.8
20260510011449 65 231 0.0 0.0 0.00 0.00 0.00 84 1012.5
20260510010946 65 227 0.0 0.0 0.00 0.00 0.00 84 1012.7
20260510010443 65 231 0.0 0.0 0.00 0.00 0.00 83 1012.4
20260510005940 66 231 0.0 0.0 0.00 0.00 0.00 82 1012.3
20260510005436 66 232 0.0 0.0 0.00 0.00 0.00 82 1012.2
20260510004933 66 228 0.0 0.0 0.00 0.00 0.00 82 1012.1
20260510004430 66 228 0.0 0.0 0.00 0.00 0.00 82 1012.1
20260510003929 67 231 0.0 0.0 0.00 0.00 0.00 81 1012.0
20260510003425 67 227 0.0 0.0 0.00 0.00 0.00 80 1012.0
20260510002924 68 229 0.0 0.0 0.00 0.00 0.00 81 1011.9
20260510002422 68 232 0.0 0.0 0.00 0.00 0.00 79 1011.9
20260510001918 68 229 0.0 0.0 0.00 0.00 0.00 78 1011.8
20260510001416 69 231 0.0 0.0 0.00 0.00 0.00 77 1011.8
20260510000913 69 231 0.0 0.0 0.00 0.00 0.00 78 1011.4
20260510000411 69 231 0.0 0.0 0.00 0.00 0.00 75 1011.6
20260509235905 70 231 0.0 0.0 0.00 0.00 0.00 74 1011.7
20260509235403 70 231 0.0 0.0 0.00 0.00 0.00 74 1011.4
20260509234858 70 229 0.0 0.0 0.00 0.00 0.00 73 1011.6
20260509234356 71 229 0.0 0.0 0.00 0.00 0.00 72 1011.6
20260509233854 71 229 0.0 0.0 0.00 0.00 0.00 72 1011.6
20260509233351 71 229 0.0 0.0 0.00 0.00 0.00 71 1011.5
20260509232846 71 233 0.0 0.0 0.00 0.00 0.00 72 1011.2
20260509232345 72 229 0.0 0.0 0.00 0.00 0.00 72 1011.4
20260509231840 72 229 0.0 0.0 0.00 0.00 0.00 70 1011.5
20260509231337 72 229 0.0 0.0 0.00 0.00 0.00 70 1011.2
20260509230836 72 229 0.0 0.0 0.00 0.00 0.00 69 1011.4
20260509230332 72 229 0.0 0.0 0.00 0.00 0.00 69 1011.3
20260509225827 73 229 0.0 0.0 0.00 0.00 0.00 69 1011.2
20260509225324 73 231 0.0 0.0 0.00 0.00 0.00 68 1011.0
20260509224820 73 233 0.0 0.0 0.00 0.00 0.00 68 1011.3
20260509224316 73 233 0.0 0.0 0.00 0.00 0.00 68 1011.1
20260509223813 73 226 0.0 0.0 0.00 0.00 0.00 68 1011.2
20260509223310 73 227 0.0 0.0 0.00 0.00 0.00 70 1011.4
20260509222807 74 228 0.0 0.0 0.00 0.00 0.00 70 1011.0
20260509222306 74 243 0.0 0.0 0.00 0.00 0.00 70 1011.0
20260509221758 74 233 0.0 0.0 0.00 0.00 0.00 70 1011.1
20260509221256 74 229 0.0 0.0 0.00 0.00 0.00 69 1010.8
20260509220751 74 227 0.0 0.0 0.00 0.00 0.00 71 1010.8
20260509220248 74 233 0.0 0.0 0.00 0.00 0.00 69 1011.0
20260509215743 74 229 0.0 0.0 0.00 0.00 0.00 70 1011.0
20260509215240 74 235 1.0 2.0 0.00 0.00 0.00 69 1010.7
20260509214737 75 221 0.0 1.0 0.00 0.00 0.00 68 1010.6
20260509214234 75 229 0.0 1.0 0.00 0.00 0.00 66 1010.7
20260509213731 75 231 0.0 1.0 0.00 0.00 0.00 68 1010.8
20260509213226 75 231 0.0 0.0 0.00 0.00 0.00 67 1010.7
20260509212724 75 225 0.0 0.0 0.00 0.00 0.00 66 1010.9
20260509212221 75 220 2.0 3.0 0.00 0.00 0.00 67 1010.9
20260509211717 75 225 0.0 1.0 0.00 0.00 0.00 67 1010.8
20260509211214 75 216 0.0 1.0 0.00 0.00 0.00 67 1010.8
20260509210710 75 223 1.0 1.0 0.00 0.00 0.00 67 1010.7
20260509210208 75 227 0.0 2.0 0.00 0.00 0.00 66 1010.8
20260509205707 75 193 2.0 5.0 0.00 0.00 0.00 65 1010.9
20260509205207 75 219 2.0 3.0 0.00 0.00 0.00 65 1010.8
20260509204703 75 198 1.0 5.0 0.00 0.00 0.00 65 1010.6
20260509204159 75 213 1.0 5.0 0.00 0.00 0.00 67 1010.8
20260509203655 75 221 0.0 5.0 0.00 0.00 0.00 65 1010.4
20260509203154 75 191 3.0 3.0 0.00 0.00 0.00 65 1010.6
20260509202649 75 221 0.0 2.0 0.00 0.00 0.00 65 1010.4
20260509202144 75 156 3.0 5.0 0.00 0.00 0.00 65 1010.3
20260509201640 75 228 1.0 2.0 0.00 0.00 0.00 65 1010.3
20260509201137 75 226 0.0 1.0 0.00 0.00 0.00 65 1010.3
20260509200632 75 119 4.0 6.0 0.00 0.00 0.00 64 1010.6
20260509200123 75 225 1.0 3.0 0.00 0.00 0.00 64 1010.3
20260509195619 75 224 1.0 1.0 0.00 0.00 0.00 62 1010.5
20260509195114 75 190 3.0 5.0 0.00 0.00 0.00 62 1010.8
20260509194613 76 218 0.0 3.0 0.00 0.00 0.00 63 1010.9
20260509194111 76 220 1.0 3.0 0.00 0.00 0.00 61 1010.8
20260509193607 76 217 1.0 1.0 0.00 0.00 0.00 65 1010.9
20260509193103 76 228 0.0 1.0 0.00 0.00 0.00 64 1010.8
20260509192600 76 226 0.0 1.0 0.00 0.00 0.00 61 1010.9
20260509192055 75 227 0.0 1.0 0.00 0.00 0.00 62 1011.1
20260509191555 75 225 1.0 3.0 0.00 0.00 0.00 61 1011.2
20260509191051 75 228 0.0 0.0 0.00 0.00 0.00 62 1011.1
20260509190548 75 229 0.0 2.0 0.00 0.00 0.00 61 1011.0
20260509190046 75 220 1.0 2.0 0.00 0.00 0.00 60 1011.3
20260509185543 75 223 0.0 1.0 0.00 0.00 0.00 64 1011.6
20260509185039 75 256 1.0 2.0 0.00 0.00 0.00 60 1011.3
20260509184538 76 238 1.0 1.0 0.00 0.00 0.00 64 1011.3
20260509184033 75 231 0.0 1.0 0.00 0.00 0.00 63 1011.4
20260509183529 75 237 1.0 1.0 0.00 0.00 0.00 62 1011.6
20260509183025 75 233 1.0 2.0 0.00 0.00 0.00 61 1011.4
20260509182521 75 224 0.0 2.0 0.00 0.00 0.00 63 1011.4
20260509182019 75 238 0.0 1.0 0.00 0.00 0.00 62 1011.4
20260509181517 75 239 1.0 1.0 0.00 0.00 0.00 63 1011.6
20260509181014 75 214 1.0 1.0 0.00 0.00 0.00 61 1011.4
20260509180509 75 246 1.0 2.0 0.00 0.00 0.00 62 1011.1
20260509180008 76 266 2.0 3.0 0.00 0.00 0.00 62 1011.2
20260509175502 76 235 1.0 1.0 0.00 0.00 0.00 61 1011.2
20260509174959 76 274 2.0 2.0 0.00 0.00 0.00 61 1010.9
20260509174456 76 236 1.0 1.0 0.00 0.00 0.00 61 1011.1
20260509173950 75 245 0.0 2.0 0.00 0.00 0.00 63 1010.9
20260509173451 75 241 1.0 1.0 0.00 0.00 0.00 64 1011.2
20260509172948 74 292 2.0 3.0 0.00 0.00 0.00 65 1011.4
20260509172445 74 148 3.0 5.0 0.00 0.00 0.00 65 1011.5
20260509171940 74 132 2.0 6.0 0.00 0.00 0.00 67 1011.8
20260509171437 73 209 5.0 7.0 0.00 0.00 0.00 67 1011.9
20260509170933 74 216 2.0 3.0 0.00 0.00 0.00 66 1011.8
20260509170429 74 226 2.0 3.0 0.00 0.00 0.00 64 1011.7
20260509165925 72 223 1.0 5.0 0.00 0.00 0.00 67 1011.9
20260509165419 73 207 0.0 3.0 0.00 0.00 0.00 69 1011.9
20260509164914 72 222 1.0 2.0 0.00 0.00 0.00 71 1012.0
20260509164411 72 222 1.0 1.0 0.00 0.00 0.00 69 1012.0
20260509163907 72 221 0.0 1.0 0.00 0.00 0.00 71 1012.0
20260509163404 72 222 0.0 1.0 0.00 0.00 0.00 69 1012.4
20260509162903 71 223 1.0 3.0 0.00 0.00 0.00 71 1012.4
20260509162402 71 233 1.0 2.0 0.00 0.00 0.00 70 1011.9
20260509161858 70 221 0.0 1.0 0.00 0.00 0.00 71 1012.2
20260509161354 70 222 1.0 3.0 0.00 0.00 0.00 71 1012.2
20260509160850 70 199 1.0 3.0 0.00 0.00 0.00 72 1012.3
20260509160346 70 219 0.0 6.0 0.00 0.00 0.00 72 1012.3
20260509155841 70 227 0.0 1.0 0.00 0.00 0.00 73 1012.5
20260509155338 69 222 0.0 2.0 0.00 0.00 0.00 74 1012.5
20260509154834 69 224 2.0 2.0 0.00 0.00 0.00 73 1012.7
20260509154331 69 221 1.0 2.0 0.00 0.00 0.00 75 1012.8
20260509153828 68 222 0.0 2.0 0.00 0.00 0.00 76 1012.8
20260509153324 68 216 1.0 5.0 0.00 0.00 0.00 75 1012.7
20260509152822 68 217 1.0 3.0 0.00 0.00 0.00 77 1012.9
20260509152317 67 212 1.0 2.0 0.00 0.00 0.00 78 1012.9
20260509151815 67 190 2.0 2.0 0.00 0.00 0.00 78 1012.8
20260509151311 66 225 0.0 3.0 0.00 0.00 0.00 80 1013.0
20260509150810 65 227 0.0 3.0 0.00 0.00 0.00 80 1012.9
20260509150307 66 223 1.0 1.0 0.00 0.00 0.00 81 1012.8
20260509145804 65 185 1.0 1.0 0.00 0.00 0.00 81 1013.0
20260509145306 65 216 1.0 2.0 0.00 0.00 0.00 82 1012.9
20260509144800 64 221 0.0 2.0 0.00 0.00 0.00 82 1012.7
20260509144257 64 195 1.0 2.0 0.00 0.00 0.00 83 1013.1
20260509143754 64 231 0.0 1.0 0.00 0.00 0.00 85 1013.1
20260509143252 64 229 0.0 1.0 0.00 0.00 0.00 87 1013.2
20260509142748 64 236 1.0 1.0 0.00 0.00 0.00 86 1012.9
20260509142244 63 223 1.0 1.0 0.00 0.00 0.00 85 1012.8
20260509141740 63 185 1.0 2.0 0.00 0.00 0.00 86 1012.4
20260509141237 63 241 0.0 3.0 0.00 0.00 0.00 85 1012.5
20260509140734 63 228 0.0 0.0 0.00 0.00 0.00 86 1012.4
20260509140231 63 218 1.0 2.0 0.00 0.00 0.00 86 1012.0
20260509135728 64 227 0.0 0.0 0.00 0.00 0.00 86 1012.0
20260509135226 64 223 0.0 0.0 0.00 0.00 0.00 85 1012.4
20260509134722 63 171 1.0 2.0 0.00 0.00 0.00 86 1012.1
20260509134220 63 177 2.0 3.0 0.00 0.00 0.00 85 1012.3
20260509133717 62 208 1.0 5.0 0.00 0.00 0.00 86 1012.2
20260509133214 62 191 1.0 3.0 0.00 0.00 0.00 87 1012.2
20260509132713 61 223 1.0 2.0 0.00 0.00 0.00 88 1012.4
20260509132211 60 162 1.0 3.0 0.00 0.00 0.00 88 1012.4
20260509131707 60 223 0.0 1.0 0.00 0.00 0.00 89 1012.3
20260509131204 60 226 0.0 1.0 0.00 0.00 0.00 89 1012.4
20260509130659 59 228 0.0 0.0 0.00 0.00 0.00 90 1012.2
20260509130156 59 223 0.0 0.0 0.00 0.00 0.00 90 1012.3
20260509125652 58 226 0.0 1.0 0.00 0.00 0.00 91 1012.0
20260509125149 58 219 0.0 1.0 0.00 0.00 0.00 91 1012.2
20260509124646 58 224 0.0 0.0 0.00 0.00 0.00 92 1012.5
20260509124143 57 224 0.0 0.0 0.00 0.00 0.00 92 1012.5
20260509123641 57 224 0.0 0.0 0.00 0.00 0.00 93 1012.7
20260509123137 57 225 0.0 0.0 0.00 0.00 0.00 95 1012.5
20260509122633 56 225 0.0 0.0 0.00 0.00 0.00 96 1012.2
20260509122130 56 225 0.0 0.0 0.00 0.00 0.00 96 1012.3
20260509121626 56 225 0.0 0.0 0.00 0.00 0.00 97 1012.2
20260509121125 55 225 0.0 0.0 0.00 0.00 0.00 98 1012.3
20260509120622 55 224 0.0 0.0 0.00 0.00 0.00 98 1012.3
20260509120120 55 224 0.0 0.0 0.00 0.00 0.00 99 1012.1
20260509115617 55 225 0.0 0.0 0.00 0.00 0.00 99 1012.4
20260509115115 55 225 0.0 0.0 0.00 0.00 0.00 99 1012.0
20260509114613 55 225 0.0 0.0 0.00 0.00 0.00 99 1012.1
20260509114112 54 225 0.0 0.0 0.00 0.00 0.00 99 1012.0
20260509113609 54 225 0.0 0.0 0.00 0.00 0.00 99 1012.0
20260509113107 54 224 0.0 0.0 0.00 0.00 0.00 99 1012.1
20260509112603 54 229 0.0 0.0 0.00 0.00 0.00 99 1012.3
20260509112100 54 227 0.0 0.0 0.00 0.00 0.00 99 1012.1
20260509111557 53 227 0.0 0.0 0.00 0.00 0.00 99 1012.1
20260509111054 53 227 0.0 0.0 0.00 0.00 0.00 99 1011.9
20260509110551 53 226 0.0 0.0 0.00 0.00 0.00 99 1011.6
20260509110048 53 228 0.0 0.0 0.00 0.00 0.00 99 1012.0
20260509105547 53 227 0.0 0.0 0.00 0.00 0.00 99 1012.1
20260509105044 53 229 0.0 0.0 0.00 0.00 0.00 99 1011.7
20260509104541 53 229 0.0 0.0 0.00 0.00 0.00 99 1011.8
20260509104037 53 229 0.0 0.0 0.00 0.00 0.00 99 1011.9
20260509103535 52 231 0.0 0.0 0.00 0.00 0.00 99 1011.8
20260509103033 52 231 0.0 0.0 0.00 0.00 0.00 99 1012.0
20260509102530 52 231 0.0 0.0 0.00 0.00 0.00 99 1011.8
20260509102027 52 231 0.0 0.0 0.00 0.00 0.00 99 1011.8
20260509101523 52 231 0.0 0.0 0.00 0.00 0.00 99 1011.8
20260509101020 52 227 0.0 0.0 0.00 0.00 0.00 99 1011.6
20260509100517 52 233 0.0 0.0 0.00 0.00 0.00 99 1011.8
20260509100015 52 233 0.0 0.0 0.00 0.00 0.00 99 1011.8
20260509095511 51 233 0.0 0.0 0.00 0.00 0.00 99 1011.9
20260509095009 51 233 0.0 0.0 0.00 0.00 0.00 99 1011.9
20260509094505 51 236 0.0 0.0 0.00 0.00 0.00 99 1011.5
20260509094002 51 233 0.0 0.0 0.00 0.00 0.00 99 1011.8
20260509093500 52 233 0.0 0.0 0.00 0.00 0.00 99 1011.6
20260509092957 52 236 0.0 0.0 0.00 0.00 0.00 99 1011.5
20260509092455 52 233 0.0 0.0 0.00 0.00 0.00 99 1011.7
20260509091954 52 235 0.0 0.0 0.00 0.00 0.00 99 1011.9
20260509091450 52 232 0.0 0.0 0.00 0.00 0.00 99 1012.2
20260509090947 52 231 0.0 0.0 0.00 0.00 0.00 99 1012.1
20260509090445 52 228 0.0 0.0 0.00 0.00 0.00 99 1011.9
20260509085942 52 226 0.0 0.0 0.00 0.00 0.00 99 1011.7
20260509085439 52 241 0.0 0.0 0.00 0.00 0.00 99 1012.2
20260509084935 52 229 0.0 0.0 0.00 0.00 0.00 99 1011.9
20260509084432 51 229 0.0 0.0 0.00 0.00 0.00 99 1012.3
20260509083930 51 228 0.0 0.0 0.00 0.00 0.00 99 1012.5
20260509083427 51 228 0.0 0.0 0.00 0.00 0.00 99 1012.4
20260509082923 51 228 0.0 0.0 0.00 0.00 0.00 99 1012.3
20260509082421 51 226 0.0 0.0 0.00 0.00 0.00 99 1012.4
20260509081917 50 225 0.0 0.0 0.00 0.00 0.00 99 1012.2
20260509081415 50 223 0.0 0.0 0.00 0.00 0.00 99 1012.1
20260509080912 50 226 0.0 0.0 0.00 0.00 0.00 99 1012.1
20260509080410 50 222 0.0 0.0 0.00 0.00 0.00 99 1012.1
20260509075908 50 226 0.0 0.0 0.00 0.00 0.00 99 1012.0
20260509075405 50 225 0.0 0.0 0.00 0.00 0.00 99 1012.2
20260509074902 50 225 0.0 0.0 0.00 0.00 0.00 99 1012.0
20260509074400 50 225 0.0 0.0 0.00 0.00 0.00 99 1011.9
20260509073855 50 226 0.0 0.0 0.00 0.00 0.00 99 1012.0
20260509073352 50 226 0.0 0.0 0.00 0.00 0.00 99 1012.0
20260509072849 50 225 0.0 0.0 0.00 0.00 0.00 99 1011.9
20260509072345 50 225 0.0 0.0 0.00 0.00 0.00 99 1012.0
20260509071842 50 225 0.0 0.0 0.00 0.00 0.00 99 1011.7
20260509071339 50 233 0.0 0.0 0.00 0.00 0.00 99 1011.8
20260509070836 50 228 0.0 0.0 0.00 0.00 0.00 99 1011.7
20260509070333 50 227 0.0 0.0 0.00 0.00 0.00 99 1011.8
20260509065829 50 227 0.0 0.0 0.00 0.00 0.00 99 1011.8
20260509065326 50 227 0.0 0.0 0.00 0.00 0.00 99 1012.0
20260509064821 50 227 0.0 0.0 0.00 0.00 0.00 99 1012.1
20260509064319 50 228 0.0 0.0 0.00 0.00 0.00 99 1012.4
20260509063817 50 227 0.0 0.0 0.00 0.00 0.00 99 1012.1
20260509063313 50 227 0.0 0.0 0.00 0.00 0.00 99 1012.2
20260509062810 51 230 0.0 0.0 0.00 0.00 0.00 99 1012.0
20260509062308 50 231 0.0 0.0 0.00 0.00 0.00 99 1012.3
20260509061804 50 231 0.0 0.0 0.00 0.00 0.00 99 1012.3
20260509061302 50 224 0.0 0.0 0.00 0.00 0.00 99 1012.5
20260509060759 50 224 0.0 0.0 0.00 0.00 0.00 99 1012.3
20260509060256 50 224 0.0 0.0 0.00 0.00 0.00 99 1012.5
20260509055751 50 224 0.0 0.0 0.00 0.00 0.00 99 1012.7
20260509055247 50 224 0.0 0.0 0.00 0.00 0.00 98 1012.8
20260509054744 50 224 0.0 0.0 0.00 0.00 0.00 98 1012.9
20260509054241 50 224 0.0 0.0 0.00 0.00 0.00 98 1012.9
20260509053739 50 224 0.0 0.0 0.00 0.00 0.00 98 1013.0
20260509053236 50 223 0.0 0.0 0.00 0.00 0.00 98 1013.2
20260509052734 51 223 0.0 0.0 0.00 0.00 0.00 98 1013.0
20260509052231 51 224 0.0 0.0 0.00 0.00 0.00 98 1012.9
20260509051729 51 224 0.0 0.0 0.00 0.00 0.00 97 1013.1
20260509051227 51 224 0.0 0.0 0.00 0.00 0.00 97 1013.0
20260509050723 51 224 0.0 0.0 0.00 0.00 0.00 97 1013.1
20260509050219 51 224 0.0 0.0 0.00 0.00 0.00 97 1013.2
20260509045717 51 224 0.0 0.0 0.00 0.00 0.00 97 1013.1
20260509045214 51 225 0.0 0.0 0.00 0.00 0.00 97 1013.1
20260509044711 51 225 0.0 0.0 0.00 0.00 0.00 96 1013.0
20260509044209 51 224 0.0 0.0 0.00 0.00 0.00 96 1012.9
20260509043705 52 225 0.0 0.0 0.00 0.00 0.00 96 1013.0
20260509043201 52 224 0.0 0.0 0.00 0.00 0.00 96 1013.1
20260509042657 52 225 0.0 0.0 0.00 0.00 0.00 95 1013.5
20260509042153 52 225 0.0 0.0 0.00 0.00 0.00 95 1013.4
20260509041650 52 224 0.0 0.0 0.00 0.00 0.00 95 1013.3
20260509041148 52 224 0.0 0.0 0.00 0.00 0.00 95 1013.4
20260509040646 52 224 0.0 0.0 0.00 0.00 0.00 95 1013.4
20260509040142 53 224 0.0 0.0 0.00 0.00 0.00 94 1013.6
20260509035639 53 223 0.0 0.0 0.00 0.00 0.00 94 1013.5
20260509035136 53 225 0.0 0.0 0.00 0.00 0.00 93 1013.7
20260509034634 53 225 0.0 0.0 0.00 0.00 0.00 93 1013.6
20260509034131 53 225 0.0 0.0 0.00 0.00 0.00 93 1013.4
20260509033627 54 225 0.0 0.0 0.00 0.00 0.00 93 1013.4
20260509033124 54 225 0.0 0.0 0.00 0.00 0.00 92 1013.5
20260509032622 54 225 0.0 0.0 0.00 0.00 0.00 92 1013.5
20260509032118 54 225 0.0 0.0 0.00 0.00 0.00 92 1013.6
20260509031617 54 225 0.0 0.0 0.00 0.00 0.00 92 1013.6
20260509031114 54 224 0.0 0.0 0.00 0.00 0.00 91 1013.4
20260509030612 55 223 0.0 0.0 0.00 0.00 0.00 91 1013.5
20260509030108 55 223 0.0 0.0 0.00 0.00 0.00 91 1013.8
20260509025605 55 224 0.0 0.0 0.00 0.00 0.00 91 1013.9
20260509025100 55 224 0.0 0.0 0.00 0.00 0.00 90 1013.7
20260509024556 55 225 0.0 0.0 0.00 0.00 0.00 89 1013.8
20260509024052 55 225 0.0 0.0 0.00 0.00 0.00 89 1013.8
20260509023550 56 225 0.0 0.0 0.00 0.00 0.00 88 1013.8